COSMOS 2251 DEB, 34459

Orbit data source: Space-Track

COSMOS 2251 DEB, 34459 is space debris in LEO originally from a launch on Wed, 16 Jun 1993 UTC launched from the Plesetsk Missile And Space Complex (PKMTR). The debris from Iridium 33, an American commercial communications satellite, has been tracked extensively since its accidental collision with the defunct Russian satellite Cosmos 2251 in 2009. This event, occurring at high speed in low Earth orbit (LEO), generated thousands of pieces of space debris, significantly increasing the risk of further collisions. The Iridium 33 debris cloud has impacted space traffic management and orbital debris mitigation strategies, making it a subject of ongoing study in space situational awareness.

Loading next visibility...
Identifier
34459, 1993-036TC
Orbit
LEO
Country
Flag of CISCIS
Related business
Manufacturer
Unknown
Mission
Spacecraft
Bus & Motor
Unknown
Mass
Unknown
Launch date (UTC)
1993-06-16 (33 years ago)
Launch vehicle
Unknown
Launch site
Plesetsk Missile And Space Complex (PKMTR)
Object type
Payload
Rocket body
Debris
Shape & HBR
Unknown shape, 0.1 m
Radar Cross Section
Small (<0.1 m²)

Expand to show TLE details & history
Last TLE update: 12 hours ago

TLE from 12 hours ago
0 COSMOS 2251 DEB
1 34459U 93036TC  26124.05896385  .00000684  00000-0  40481-3 0  9993
2 34459  74.0810   8.0203 0190591  44.0350 317.5786 14.00732629877048
Epoch: 2026-05-04T01:24Z
TLE epoch observation values (Epoch: 2026-05-04T01:24:54.476Z)
Latitude
0.00002°
Longitude
124.83972°
Altitude
792.764 km
Speed
7.509 km/s
True Right ascension
00h 32m 04s
True Declination
0° 00' 00"
Sunlit
Object was in daylight at epoch
Visualization orbit readout
Latitude
Unknown
Longitude
Unknown
Altitude
Unknown
Speed
Unknown
Apparent Right ascension
Unknown
Apparent Declination
Unknown
Sunlit
N/A
Visualization observer readout
Local Sidereal Time
21:43:56
Azimuth
Unknown
Elevation
Unknown
Doppler factor
Unknown
Orbital elements
Apogee altitude
1,027.421 km
Perigee altitude
750.414 km
Semi-major axis
7,267.054 km
Eccentricity
0.01906
Inclination
74.081°
RAAN
8.0203°
Arg. of periapsis
44.035°
True anomaly
316.07913°
Mean anomaly
317.5786°
Eccentric anomaly
316.83151°
Mean motion
3.50353 °/min
Orbital period
102.75 mins
BSTAR
0.00040481
Loading maneuver chart data...
Computing Atmospheric mass density...

Documentation

Showing up to 5 results
|